Location: Devore Heights
(34.2372°N, 117.4156°W)
Time: 19:43:45
(UTC+00:00)

deb Explorer IX - Pass Details

Date: 14 September 2024
Orbit: 502 x 816 km, 38.7° (Epoch: 15 October)

Event Time Altitude Azimuth Distance (km) Brightness Sun altitude
Rises 03:19:27 0° 234° (SW) 3,384 ? -17.3°
Reaches altitude 10° 03:22:00 10° 231° (SW) 2,467 ? -17.8°
Maximum altitude 03:27:50 60° 152° (SSE) 972 ? -19.0°
Enters shadow 03:30:17 34° 88° (E) 1,362 ? -19.5°
Drops below altitude 10° 03:33:35 10° 74° (ENE) 2,436 - -20.1°
Sets 03:36:05 0° 71° (ENE) 3,339 - -20.6°
